Rock Hill, SC

4:46 AM EST on February 21, 2018 (GMT -0500)
Rock Hill-York County-Bryant

Weather History for KUZA - April, 2013

Change the Weather History Date:

Tuesday, April 9, 2013

  Actual Average Record
Temperature  
Mean Temperature 66 °F -  
Max Temperature 84 °F 70 °F 88 °F (1965)
Min Temperature 50 °F 47 °F 29 °F (1972)
Cooling Degree Days 1    
Growing Degree Days 16 (Base 50)    
Moisture  
Dew Point 55 °F    
Average Humidity 67    
Maximum Humidity 100    
Minimum Humidity 38    
Precipitation  
Precipitation 0.00 in - - ()
Sea Level Pressure  
Sea Level Pressure 30.13 in    
Wind  
Wind Speed 6 mph (SW)    
Max Wind Speed 14 mph    
Max Gust Speed 18 mph    
Visibility 9 miles    
Events      
Averages and records for this station are not official NWS values.
T = Trace of Precipitation, MM = Missing Value Source: NWS Daily Summary

Daily Weather History Graph

Daily Weather History Graph

Search for Another Location

Airport or City:

Trip Planner

Search our weather history database for the weather conditions in past years. The results will help you decide how hot, cold, wet, or windy it might be!

Date:

Astronomy

Apr. 09, 2013 Rise Set
Actual Time 6:59 AM EDT 7:52 PM EDT
Civil Twilight 6:34 AM EDT 8:17 PM EDT
Nautical Twilight 6:03 AM EDT 8:48 PM EDT
Astronomical Twilight 5:32 AM EDT 9:19 PM EDT
Moon 6:20 AM EDT (4/9) 7:26 PM EDT (4/9)
Length of Visible Light 13h 43m
Length of Day
12h 52m
Waning Crescent, 1% of the Moon is Illuminated
Apr 9
Waning Crescent
Apr 10
New
Apr 18
First Quarter
Apr 25
Full
May 2
Last Quarter

Hourly Weather History & Observations

Time (EDT) Temp. Heat Index Dew Point Humidity Pressure Visibility Wind Dir Wind Speed Gust Speed Precip Events Conditions
12:54 AM 63.0 °F - 53.1 °F 70% 30.10 in 10.0 mi South 8.1 mph - N/A   Clear
1:54 AM 62.1 °F - 53.1 °F 72% 30.10 in 10.0 mi South 4.6 mph - N/A   Clear
2:54 AM 59.0 °F - 53.1 °F 81% 30.10 in 10.0 mi SSW 3.5 mph - N/A   Clear
3:54 AM 55.9 °F - 53.1 °F 90% 30.10 in 10.0 mi Calm Calm - N/A   Clear
4:54 AM 53.1 °F - 52.0 °F 96% 30.12 in 9.0 mi SSW 3.5 mph - N/A   Clear
5:54 AM 51.1 °F - 51.1 °F 100% 30.14 in 7.0 mi Calm Calm - N/A   Clear
6:54 AM 50.0 °F - 50.0 °F 100% 30.17 in 3.0 mi Calm Calm - N/A   Clear
7:54 AM 54.0 °F - 53.1 °F 97% 30.18 in 4.0 mi Calm Calm - N/A   Clear
8:54 AM 62.1 °F - 55.9 °F 80% 30.19 in 9.0 mi SW 6.9 mph - N/A   Clear
9:54 AM 66.9 °F - 57.0 °F 70% 30.19 in 10.0 mi West 8.1 mph - N/A   Clear
10:54 AM 73.0 °F - 57.9 °F 59% 30.20 in 10.0 mi SSW 6.9 mph - N/A   Clear
11:54 AM 75.9 °F - 59.0 °F 56% 30.19 in 10.0 mi SSW 5.8 mph - N/A   Clear
12:54 PM 79.0 °F - 59.0 °F 50% 30.17 in 10.0 mi Variable 5.8 mph - N/A   Scattered Clouds
1:54 PM 81.0 °F 81.0 °F 57.0 °F 44% 30.14 in 10.0 mi SW 10.4 mph - N/A   Mostly Cloudy
2:54 PM 82.9 °F 82.6 °F 57.9 °F 42% 30.13 in 10.0 mi West 10.4 mph 18.4 mph N/A   Scattered Clouds
3:54 PM 82.9 °F 82.0 °F 55.0 °F 38% 30.10 in 10.0 mi WSW 10.4 mph 18.4 mph N/A   Partly Cloudy
4:54 PM 82.0 °F 81.4 °F 55.0 °F 39% 30.10 in 8.0 mi WSW 12.7 mph 18.4 mph N/A   Overcast
5:54 PM 82.0 °F 81.6 °F 55.9 °F 41% 30.09 in 9.0 mi SW 13.8 mph - N/A   Overcast
6:54 PM 80.1 °F 80.0 °F 54.0 °F 40% 30.09 in 10.0 mi SW 10.4 mph - N/A   Overcast
7:54 PM 73.0 °F - 55.0 °F 53% 30.10 in 10.0 mi SSW 8.1 mph - N/A   Overcast
8:54 PM 69.1 °F - 55.9 °F 63% 30.11 in 10.0 mi SSW 5.8 mph - N/A   Overcast
9:54 PM 66.0 °F - 55.9 °F 70% 30.12 in 9.0 mi SSW 5.8 mph - N/A   Clear
10:54 PM 63.0 °F - 55.9 °F 78% 30.10 in 9.0 mi SSW 5.8 mph - N/A   Clear
11:54 PM 64.9 °F - 55.9 °F 73% 30.08 in 10.0 mi South 4.6 mph - N/A   Clear